K4MZ Weather Reports


Display with metric or nautical units.
time (UTC)temp
F
wind
direction
speed
MPH
gust
MPH
rain 1hr
in
rain 24hr
in
rain mn
in
humidity
%
barometer
mb
20260502170518 56 346 2.0 7.0 0.00 0.00 0.00 47 1013.5
20260502163519 54 338 2.0 5.0 0.00 0.00 0.00 49 1014.1
20260502162520 53 321 2.0 4.0 0.00 0.00 0.00 50 1014.2
20260502161621 53 316 3.0 7.0 0.00 0.00 0.00 51 1014.3
20260502160542 53 323 2.0 4.0 0.00 0.00 0.00 52 1014.6
20260502151607 53 13 2.0 3.0 0.00 0.00 0.00 53 1014.0
20260502150543 53 306 2.0 5.0 0.00 0.00 0.00 52 1014.2
20260502130624 52 306 2.0 4.0 0.00 0.00 0.00 63 1013.8
20260502123603 52 315 1.0 3.0 0.00 0.00 0.00 67 1013.7
20260502122545 52 310 2.0 4.0 0.00 0.00 0.00 70 1013.7
20260502121545 52 340 1.0 2.0 0.00 0.00 0.00 73 1013.8
20260502120523 52 148 0.0 0.0 0.00 0.00 0.00 75 1013.7
20260502114604 51 0.0 0.0 0.00 0.00 0.00 76 1013.5
20260502113555 50 88 0.0 0.0 0.00 0.00 0.00 75 1013.5
20260502112645 50 98 0.0 1.0 0.00 0.00 0.00 75 1013.4
20260502111524 50 102 0.0 1.0 0.00 0.00 0.00 74 1013.3
20260502110717 0 91 0.0 0.0 0.00 0.00 0.00
20260502105707 50 78 1.0 1.0 0.00 0.00 0.00 73 1013.1
20260502104657 51 109 1.0 1.0 0.00 0.00 0.00 71 1013.2
20260502103642 51 97 1.0 2.0 0.00 0.00 0.00 70 1013.1
20260502102527 51 101 1.0 2.0 0.00 0.00 0.00 70 1013.2
20260502101602 52 90 1.0 2.0 0.00 0.00 0.00 69 1013.3
20260502100606 52 61 1.0 1.0 0.00 0.00 0.00 68 1013.3
20260502091526 53 97 1.0 3.0 0.00 0.00 0.00 64 1012.9
20260502090527 53 59 1.0 3.0 0.00 0.00 0.00 64 1013.0
20260502071518 54 320 4.0 6.0 0.00 0.00 0.00 78 1012.2
20260502070524 53 294 3.0 7.0 0.00 0.00 0.00 81 1012.3
20260502065518 52 315 4.0 7.0 0.00 0.00 0.00 84 1012.3
20260502064529 50 327 3.0 5.0 0.00 0.00 0.00 86 1012.4
20260502063530 49 331 1.0 3.0 0.00 0.00 0.00 87 1012.4
20260502062651 50 0.0 0.0 0.00 0.00 0.00 86 1012.5
20260502060530 50 36 0.0 1.0 0.00 0.00 0.00 86 1012.5
20260502055530 50 140 1.0 2.0 0.00 0.00 0.00 85 1012.4
20260502054530 50 124 0.0 1.0 0.00 0.00 0.00 85 1012.5
20260502053530 51 117 1.0 1.0 0.00 0.00 0.00 84 1012.5
20260502052550 51 106 1.0 2.0 0.00 0.00 0.00 84 1012.6
20260502051550 51 2 1.0 2.0 0.00 0.00 0.00 83 1012.6
20260502050517 51 356 1.0 3.0 0.00 0.00 0.00 83 1012.6
20260502045557 51 88 0.0 0.0 0.00 0.00 0.00 82 1012.6
20260502044517 51 130 1.0 1.0 0.00 0.00 0.00 81 1012.7
20260502043618 52 327 0.0 2.0 0.00 0.00 0.00 81 1012.9
20260502042517 52 330 1.0 3.0 0.00 0.00 0.00 80 1013.0
20260502041531 52 357 0.0 2.0 0.00 0.00 0.00 80 1012.6
20260502040518 52 92 1.0 1.0 0.00 0.00 0.00 79 1012.5
20260502035518 52 88 0.0 1.0 0.00 0.00 0.00 79 1012.7
20260502034559 53 86 0.0 1.0 0.00 0.00 0.00 78 1012.6
20260502033519 53 83 0.0 1.0 0.00 0.00 0.00 78 1012.6
20260502032539 53 80 0.0 1.0 0.00 0.00 0.00 77 1012.5
20260502031519 54 79 1.0 2.0 0.00 0.00 0.00 77 1012.5
20260502030539 54 97 0.0 1.0 0.00 0.00 0.00 76 1012.5
20260502025519 54 94 1.0 1.0 0.00 0.00 0.00 75 1012.6
20260502024641 55 83 1.0 1.0 0.00 0.00 0.00 74 1012.4
20260502023520 55 107 1.0 2.0 0.00 0.00 0.00 74 1012.3
20260502022605 55 102 1.0 5.0 0.00 0.00 0.00 73 1012.4
20260502021520 56 80 1.0 2.0 0.00 0.00 0.00 72 1012.3
20260502020621 56 109 1.0 2.0 0.00 0.00 0.00 71 1012.2
20260502015634 57 79 1.0 2.0 0.00 0.00 0.00 70 1012.0
20260502014521 57 131 2.0 4.0 0.00 0.00 0.00 69 1012.0
20260502013538 57 120 2.0 5.0 0.00 0.00 0.00 68 1012.2
20260502012518 58 129 2.0 3.0 0.00 0.00 0.00 68 1012.1
20260502011519 58 87 2.0 3.0 0.00 0.00 0.00 67 1012.0
20260502010519 58 108 2.0 7.0 0.00 0.00 0.00 67 1011.8
20260502005559 59 112 1.0 3.0 0.00 0.00 0.00 66 1011.6
20260502004519 59 128 2.0 7.0 0.00 0.00 0.00 65 1011.5
20260502003519 59 114 2.0 5.0 0.00 0.00 0.00 64 1011.3
20260502002600 60 99 2.0 4.0 0.00 0.00 0.00 62 1011.2
20260502001520 60 129 2.0 4.0 0.00 0.00 0.00 62 1011.0
20260502000519 61 92 2.0 4.0 0.00 0.00 0.00 60 1010.6
20260501235517 61 100 1.0 3.0 0.00 0.00 0.00 59 1010.5
20260501233520 62 99 1.0 3.0 0.00 0.00 0.00 57 1010.7
20260501232520 63 80 2.0 4.0 0.00 0.00 0.00 56 1010.7
20260501231521 63 104 1.0 3.0 0.00 0.00 0.00 55 1010.6
20260501230518 65 103 1.0 2.0 0.00 0.00 0.00 54 1010.6
20260501225619 66 113 1.0 3.0 0.00 0.00 0.00 52 1010.7
20260501224638 66 116 1.0 2.0 0.00 0.00 0.00 51 1010.7
20260501223518 67 122 1.0 3.0 0.00 0.00 0.00 48 1010.8
20260501222559 67 103 1.0 4.0 0.00 0.00 0.00 48 1010.9
20260501221558 67 108 2.0 5.0 0.00 0.00 0.00 47 1010.9
20260501220519 68 73 2.0 3.0 0.00 0.00 0.00 45 1011.1
20260501215539 68 117 1.0 6.0 0.00 0.00 0.00 45 1011.1
20260501214640 67 117 2.0 7.0 0.00 0.00 0.00 45 1011.2
20260501213516 67 132 1.0 3.0 0.00 0.00 0.00 46 1011.3
20260501212539 67 116 3.0 6.0 0.00 0.00 0.00 45 1011.3
20260501211700 68 100 2.0 6.0 0.00 0.00 0.00 44 1011.3
20260501210519 68 97 2.0 8.0 0.00 0.00 0.00 44 1011.4
20260501205517 68 111 1.0 3.0 0.00 0.00 0.00 45 1011.4
20260501204517 68 118 2.0 6.0 0.00 0.00 0.00 44 1011.6
20260501203641 68 123 2.0 7.0 0.00 0.00 0.00 45 1011.6
20260501202521 68 122 2.0 6.0 0.00 0.00 0.00 44 1011.6
20260501201518 68 124 2.0 7.0 0.00 0.00 0.00 43 1011.8
20260501200517 68 347 2.0 5.0 0.00 0.00 0.00 44 1011.9
20260501195538 67 79 3.0 10.0 0.00 0.00 0.00 43 1012.0
20260501194518 68 320 2.0 4.0 0.00 0.00 0.00 42 1012.4
20260501193558 68 109 2.0 5.0 0.00 0.00 0.00 40 1012.6
20260501192519 68 290 2.0 4.0 0.00 0.00 0.00 43 1012.8
20260501191539 67 304 2.0 6.0 0.00 0.00 0.00 42 1012.9
20260501190519 67 268 2.0 5.0 0.00 0.00 0.00 42 1013.1
20260501185540 67 78 2.0 4.0 0.00 0.00 0.00 42 1013.3
20260501184536 66 164 2.0 6.0 0.00 0.00 0.00 43 1013.3
20260501183516 65 109 3.0 8.0 0.00 0.00 0.00 43 1013.4
20260501182519 65 51 2.0 4.0 0.00 0.00 0.00 44 1013.6
20260501181540 64 90 3.0 7.0 0.00 0.00 0.00 45 1013.7
20260501180641 65 80 2.0 8.0 0.00 0.00 0.00 44 1013.8
20260501175540 65 99 2.0 5.0 0.00 0.00 0.00 45 1014.1
20260501174517 64 109 2.0 8.0 0.00 0.00 0.00 45 1014.3
20260501173517 63 68 2.0 5.0 0.00 0.00 0.00 45 1014.4
20260501172541 63 86 3.0 7.0 0.00 0.00 0.00 46 1014.5